| time (UTC) | temp F | wind direction | speed knots | gust knots | rain 1hr in | rain 24hr in | rain mn in | humidity % | barometer mb |
| 20260509123015 | 59 | 158 | 0.9 | 2.6 | 0.00 | 0.00 | 0.00 | 71 | 1012.9 |
| 20260509122517 | 59 | 0.0 | 2.6 | 0.00 | 0.00 | 0.00 | 72 | 1012.8 | |
| 20260509122017 | 59 | 113 | 0.9 | 3.5 | 0.00 | 0.00 | 0.00 | 72 | 1012.8 |
| 20260509121516 | 58 | 135 | 0.9 | 2.6 | 0.00 | 0.00 | 0.00 | 72 | 1012.8 |
| 20260509121015 | 58 | 0.0 | 2.6 | 0.00 | 0.00 | 0.00 | 72 | 1012.8 | |
| 20260509120537 | 58 | 135 | 0.9 | 2.6 | 0.00 | 0.00 | 0.00 | 72 | 1012.6 |
| 20260509120015 | 58 | 135 | 0.9 | 2.6 | 0.00 | 0.00 | 0.00 | 72 | 1012.8 |
| 20260509115515 | 58 | 0.0 | 1.7 | 0.00 | 0.00 | 0.00 | 72 | 1012.9 | |
| 20260509115015 | 57 | 0.0 | 1.7 | 0.00 | 0.00 | 0.00 | 72 | 1012.9 | |
| 20260509114515 | 57 | 0.0 | 1.7 | 0.00 | 0.00 | 0.00 | 72 | 1012.9 | |
| 20260509114015 | 57 | 0.0 | 2.6 | 0.00 | 0.00 | 0.00 | 72 | 1012.9 | |
| 20260509113516 | 57 | 0.0 | 4.3 | 0.00 | 0.00 | 0.00 | 72 | 1012.9 | |
| 20260509113139 | 57 | 0.0 | 1.7 | 0.00 | 0.00 | 0.00 | 73 | 1012.8 | |
| 20260509112515 | 57 | 203 | 0.9 | 2.6 | 0.00 | 0.00 | 0.00 | 73 | 1012.9 |
| 20260509112037 | 57 | 203 | 0.9 | 7.0 | 0.00 | 0.00 | 0.00 | 73 | 1012.8 |
| 20260509111536 | 57 | 225 | 0.9 | 7.0 | 0.00 | 0.00 | 0.00 | 73 | 1012.7 |
| 20260509111017 | 57 | 0.0 | 4.3 | 0.00 | 0.00 | 0.00 | 73 | 1012.8 | |
| 20260509110515 | 57 | 203 | 0.9 | 4.3 | 0.00 | 0.00 | 0.00 | 73 | 1012.8 |
| 20260509110016 | 57 | 203 | 0.9 | 4.3 | 0.00 | 0.00 | 0.00 | 73 | 1012.8 |
| 20260509105515 | 57 | 225 | 1.7 | 5.2 | 0.00 | 0.00 | 0.00 | 73 | 1012.8 |
| 20260509105037 | 57 | 225 | 1.7 | 5.2 | 0.00 | 0.00 | 0.00 | 73 | 1012.7 |
| 20260509104517 | 57 | 225 | 0.9 | 4.3 | 0.00 | 0.00 | 0.00 | 73 | 1012.6 |
| 20260509104035 | 57 | 225 | 0.9 | 3.5 | 0.00 | 0.00 | 0.00 | 73 | 1012.6 |
| 20260509103515 | 57 | 203 | 0.9 | 2.6 | 0.00 | 0.00 | 0.00 | 72 | 1012.6 |
| 20260509103015 | 57 | 203 | 0.9 | 7.0 | 0.00 | 0.00 | 0.00 | 72 | 1012.6 |
| 20260509102518 | 57 | 225 | 0.9 | 4.3 | 0.00 | 0.00 | 0.00 | 72 | 1012.5 |
| 20260509102017 | 57 | 225 | 0.9 | 4.3 | 0.00 | 0.00 | 0.00 | 72 | 1012.4 |
| 20260509101517 | 57 | 158 | 0.9 | 3.5 | 0.00 | 0.00 | 0.00 | 71 | 1012.5 |
| 20260509101017 | 57 | 0.0 | 0.0 | 0.00 | 0.00 | 0.00 | 71 | 1012.4 | |
| 20260509100517 | 57 | 0.0 | 0.9 | 0.00 | 0.00 | 0.00 | 71 | 1012.4 | |
| 20260509100017 | 57 | 0.0 | 0.9 | 0.00 | 0.00 | 0.00 | 71 | 1012.3 | |
| 20260509095537 | 57 | 0.0 | 3.5 | 0.00 | 0.00 | 0.00 | 71 | 1012.4 | |
| 20260509095017 | 57 | 0.0 | 0.0 | 0.00 | 0.00 | 0.00 | 72 | 1012.4 | |
| 20260509094517 | 57 | 0.0 | 3.5 | 0.00 | 0.00 | 0.00 | 72 | 1012.4 | |
| 20260509094017 | 57 | 0.0 | 1.7 | 0.00 | 0.00 | 0.00 | 73 | 1012.4 | |
| 20260509093517 | 57 | 113 | 0.9 | 1.7 | 0.00 | 0.00 | 0.00 | 73 | 1012.3 |
| 20260509093019 | 57 | 0.0 | 1.7 | 0.00 | 0.00 | 0.00 | 73 | 1012.2 | |
| 20260509092518 | 57 | 0.0 | 1.7 | 0.00 | 0.00 | 0.00 | 72 | 1012.2 | |
| 20260509092017 | 57 | 0.0 | 0.0 | 0.00 | 0.00 | 0.00 | 72 | 1012.2 | |
| 20260509091538 | 57 | 0.0 | 0.0 | 0.00 | 0.00 | 0.00 | 72 | 1012.3 | |
| 20260509091017 | 57 | 0.0 | 1.7 | 0.00 | 0.00 | 0.00 | 72 | 1012.4 | |
| 20260509090517 | 57 | 0.0 | 1.7 | 0.00 | 0.00 | 0.00 | 72 | 1012.4 | |
| 20260509090015 | 57 | 0.0 | 2.6 | 0.00 | 0.00 | 0.00 | 71 | 1012.3 | |
| 20260509085518 | 57 | 113 | 0.9 | 2.6 | 0.00 | 0.00 | 0.00 | 71 | 1012.3 |
| 20260509085017 | 57 | 0.0 | 1.7 | 0.00 | 0.00 | 0.00 | 70 | 1012.4 | |
| 20260509084537 | 57 | 135 | 0.9 | 2.6 | 0.00 | 0.00 | 0.00 | 69 | 1012.4 |
| 20260509084017 | 57 | 0.0 | 1.7 | 0.00 | 0.00 | 0.00 | 69 | 1012.3 | |
| 20260509083518 | 57 | 0.0 | 0.0 | 0.00 | 0.00 | 0.00 | 69 | 1012.4 | |
| 20260509083037 | 57 | 0.0 | 0.0 | 0.00 | 0.00 | 0.00 | 68 | 1012.4 | |
| 20260509082517 | 57 | 0.0 | 0.0 | 0.00 | 0.00 | 0.00 | 68 | 1012.5 | |
| 20260509082038 | 57 | 0.0 | 0.0 | 0.00 | 0.00 | 0.00 | 68 | 1012.4 | |
| 20260509081518 | 57 | 0.0 | 0.0 | 0.00 | 0.00 | 0.00 | 68 | 1012.5 | |
| 20260509081037 | 57 | 0.0 | 0.0 | 0.00 | 0.00 | 0.00 | 68 | 1012.5 | |
| 20260509080517 | 57 | 0.0 | 0.0 | 0.00 | 0.00 | 0.00 | 68 | 1012.4 | |
| 20260509080037 | 57 | 0.0 | 0.0 | 0.00 | 0.00 | 0.00 | 68 | 1012.3 | |
| 20260509075518 | 57 | 0.0 | 0.0 | 0.00 | 0.00 | 0.00 | 68 | 1012.3 | |
| 20260509075017 | 57 | 0.0 | 0.0 | 0.00 | 0.00 | 0.00 | 69 | 1012.4 | |
| 20260509074518 | 57 | 0.0 | 0.0 | 0.00 | 0.00 | 0.00 | 69 | 1012.4 | |
| 20260509074017 | 57 | 0.0 | 0.0 | 0.00 | 0.00 | 0.00 | 69 | 1012.5 | |
| 20260509073518 | 57 | 0.0 | 1.7 | 0.00 | 0.00 | 0.00 | 69 | 1012.6 | |
| 20260509073017 | 57 | 0.0 | 0.9 | 0.00 | 0.00 | 0.00 | 70 | 1012.6 | |
| 20260509072518 | 57 | 0.0 | 1.7 | 0.00 | 0.00 | 0.00 | 70 | 1012.6 | |
| 20260509072017 | 57 | 0.0 | 0.9 | 0.00 | 0.00 | 0.00 | 71 | 1012.6 | |
| 20260509071518 | 57 | 0.0 | 1.7 | 0.00 | 0.00 | 0.00 | 71 | 1012.5 | |
| 20260509071018 | 57 | 0.0 | 0.0 | 0.00 | 0.00 | 0.00 | 71 | 1012.5 | |
| 20260509070517 | 57 | 0.0 | 0.9 | 0.00 | 0.00 | 0.00 | 71 | 1012.5 | |
| 20260509070017 | 57 | 0.0 | 1.7 | 0.00 | 0.00 | 0.00 | 72 | 1012.6 | |
| 20260509065538 | 57 | 0.0 | 1.7 | 0.00 | 0.00 | 0.00 | 72 | 1012.6 | |
| 20260509065017 | 57 | 135 | 0.9 | 2.6 | 0.00 | 0.00 | 0.00 | 72 | 1012.5 |
| 20260509064517 | 57 | 0.0 | 3.5 | 0.00 | 0.00 | 0.00 | 72 | 1012.4 | |
| 20260509064037 | 57 | 135 | 0.9 | 2.6 | 0.00 | 0.00 | 0.00 | 72 | 1012.6 |
| 20260509063518 | 57 | 0.0 | 0.9 | 0.00 | 0.00 | 0.00 | 71 | 1012.5 | |
| 20260509063017 | 57 | 0.0 | 1.7 | 0.00 | 0.00 | 0.00 | 72 | 1012.5 | |
| 20260509062518 | 58 | 135 | 0.9 | 2.6 | 0.00 | 0.00 | 0.00 | 72 | 1012.5 |
| 20260509062017 | 58 | 135 | 0.9 | 1.7 | 0.00 | 0.00 | 0.00 | 71 | 1012.7 |
| 20260509061517 | 58 | 0.0 | 1.7 | 0.00 | 0.00 | 0.00 | 71 | 1012.7 | |
| 20260509061017 | 58 | 0.0 | 1.7 | 0.00 | 0.00 | 0.00 | 70 | 1012.9 | |
| 20260509060517 | 58 | 0.0 | 1.7 | 0.00 | 0.00 | 0.00 | 70 | 1013.0 | |
| 20260509060038 | 58 | 135 | 0.9 | 2.6 | 0.00 | 0.00 | 0.00 | 70 | 1013.1 |
| 20260509055517 | 58 | 135 | 0.9 | 1.7 | 0.00 | 0.00 | 0.00 | 70 | 1013.2 |
| 20260509055017 | 58 | 0.0 | 1.7 | 0.00 | 0.00 | 0.00 | 69 | 1013.3 | |
| 20260509054517 | 58 | 0.0 | 1.7 | 0.00 | 0.00 | 0.00 | 68 | 1013.2 | |
| 20260509054017 | 58 | 0.0 | 3.5 | 0.00 | 0.00 | 0.00 | 68 | 1013.2 | |
| 20260509053517 | 58 | 135 | 0.9 | 3.5 | 0.00 | 0.00 | 0.00 | 67 | 1013.3 |
| 20260509053037 | 58 | 135 | 1.7 | 5.2 | 0.00 | 0.00 | 0.00 | 66 | 1013.3 |
| 20260509052517 | 58 | 135 | 0.9 | 3.5 | 0.00 | 0.00 | 0.00 | 66 | 1013.3 |
| 20260509052017 | 58 | 113 | 0.9 | 2.6 | 0.00 | 0.00 | 0.00 | 66 | 1013.2 |
| 20260509051516 | 58 | 135 | 0.9 | 2.6 | 0.00 | 0.00 | 0.00 | 65 | 1013.2 |
| 20260509051017 | 58 | 0.0 | 1.7 | 0.00 | 0.00 | 0.00 | 65 | 1013.2 | |
| 20260509050517 | 58 | 0.0 | 0.0 | 0.00 | 0.00 | 0.00 | 65 | 1013.2 | |
| 20260509050016 | 58 | 0.0 | 0.0 | 0.00 | 0.00 | 0.00 | 64 | 1013.1 | |
| 20260509045517 | 57 | 0.0 | 0.0 | 0.00 | 0.00 | 0.00 | 64 | 1013.0 | |
| 20260509045037 | 57 | 0.0 | 0.0 | 0.00 | 0.00 | 0.00 | 64 | 1012.9 | |
| 20260509044518 | 58 | 0.0 | 0.0 | 0.00 | 0.00 | 0.00 | 63 | 1012.9 | |
| 20260509044017 | 58 | 0.0 | 1.7 | 0.00 | 0.00 | 0.00 | 63 | 1013.0 | |
| 20260509043537 | 58 | 0.0 | 0.0 | 0.00 | 0.00 | 0.00 | 63 | 1012.9 | |
| 20260509043057 | 58 | 0.0 | 0.0 | 0.00 | 0.00 | 0.00 | 62 | 1013.0 | |
| 20260509042517 | 58 | 0.0 | 0.0 | 0.00 | 0.00 | 0.00 | 62 | 1013.0 | |
| 20260509042016 | 58 | 0.0 | 0.9 | 0.00 | 0.00 | 0.00 | 62 | 1013.0 | |
| 20260509041517 | 58 | 0.0 | 0.0 | 0.00 | 0.00 | 0.00 | 62 | 1012.9 | |
| 20260509041037 | 58 | 0.0 | 0.9 | 0.00 | 0.00 | 0.00 | 62 | 1012.9 | |
| 20260509040517 | 58 | 0.0 | 0.0 | 0.00 | 0.00 | 0.00 | 62 | 1013.0 | |
| 20260509040039 | 58 | 0.0 | 0.0 | 0.00 | 0.00 | 0.00 | 61 | 1013.0 | |
| 20260509035538 | 58 | 0.0 | 0.0 | 0.00 | 0.00 | 0.00 | 61 | 1013.0 | |
| 20260509035017 | 58 | 0.0 | 0.0 | 0.00 | 0.00 | 0.00 | 61 | 1013.1 | |
| 20260509034538 | 58 | 0.0 | 0.0 | 0.00 | 0.00 | 0.00 | 61 | 1013.1 | |
| 20260509034017 | 58 | 0.0 | 0.0 | 0.00 | 0.00 | 0.00 | 61 | 1013.1 | |
| 20260509033517 | 58 | 0.0 | 0.9 | 0.00 | 0.00 | 0.00 | 61 | 1013.1 | |
| 20260509033017 | 58 | 0.0 | 0.0 | 0.00 | 0.00 | 0.00 | 60 | 1013.1 | |
| 20260509032518 | 58 | 0.0 | 0.0 | 0.00 | 0.00 | 0.00 | 60 | 1013.1 | |
| 20260509032037 | 58 | 0.0 | 0.0 | 0.00 | 0.00 | 0.00 | 61 | 1013.2 | |
| 20260509031517 | 58 | 0.0 | 0.0 | 0.00 | 0.00 | 0.00 | 61 | 1013.2 | |
| 20260509031017 | 58 | 0.0 | 0.9 | 0.00 | 0.00 | 0.00 | 61 | 1013.2 | |
| 20260509030517 | 58 | 0.0 | 0.0 | 0.00 | 0.00 | 0.00 | 61 | 1013.2 | |
| 20260509030017 | 59 | 0.0 | 0.0 | 0.00 | 0.00 | 0.00 | 61 | 1013.2 | |
| 20260509025517 | 59 | 0.0 | 0.9 | 0.00 | 0.00 | 0.00 | 61 | 1013.3 | |
| 20260509025018 | 59 | 0.0 | 0.0 | 0.00 | 0.00 | 0.00 | 61 | 1013.4 | |
| 20260509024518 | 59 | 0.0 | 0.9 | 0.00 | 0.00 | 0.00 | 61 | 1013.3 | |
| 20260509024017 | 59 | 0.0 | 0.9 | 0.00 | 0.00 | 0.00 | 62 | 1013.4 | |
| 20260509023517 | 59 | 0.0 | 2.6 | 0.00 | 0.00 | 0.00 | 62 | 1013.4 | |
| 20260509023017 | 59 | 0.0 | 0.9 | 0.00 | 0.00 | 0.00 | 62 | 1013.4 | |
| 20260509022517 | 59 | 0.0 | 2.6 | 0.00 | 0.00 | 0.00 | 61 | 1013.4 | |
| 20260509022017 | 59 | 135 | 0.9 | 3.5 | 0.00 | 0.00 | 0.00 | 61 | 1013.3 |
| 20260509021515 | 59 | 135 | 0.9 | 2.6 | 0.00 | 0.00 | 0.00 | 60 | 1013.2 |
| 20260509021017 | 59 | 0.0 | 2.6 | 0.00 | 0.00 | 0.00 | 61 | 1013.3 | |
| 20260509020517 | 59 | 0.0 | 1.7 | 0.00 | 0.00 | 0.00 | 61 | 1013.3 | |
| 20260509020017 | 59 | 113 | 0.9 | 3.5 | 0.00 | 0.00 | 0.00 | 60 | 1013.2 |
| 20260509015517 | 59 | 135 | 0.9 | 4.3 | 0.00 | 0.00 | 0.00 | 60 | 1013.2 |
| 20260509015037 | 59 | 135 | 0.9 | 4.3 | 0.00 | 0.00 | 0.00 | 60 | 1013.0 |
| 20260509014517 | 59 | 0.0 | 1.7 | 0.00 | 0.00 | 0.00 | 60 | 1013.0 | |
| 20260509014017 | 59 | 113 | 0.9 | 3.5 | 0.00 | 0.00 | 0.00 | 61 | 1013.0 |
| 20260509013517 | 59 | 135 | 0.9 | 5.2 | 0.00 | 0.00 | 0.00 | 60 | 1013.0 |
| 20260509013018 | 59 | 135 | 0.9 | 2.6 | 0.00 | 0.00 | 0.00 | 60 | 1012.9 |
| 20260509012517 | 59 | 135 | 0.9 | 3.5 | 0.00 | 0.00 | 0.00 | 60 | 1012.9 |
| 20260509012017 | 59 | 135 | 0.9 | 3.5 | 0.00 | 0.00 | 0.00 | 58 | 1012.8 |
| 20260509011518 | 60 | 135 | 1.7 | 6.1 | 0.00 | 0.00 | 0.00 | 57 | 1012.7 |
| 20260509011018 | 60 | 135 | 1.7 | 4.3 | 0.00 | 0.00 | 0.00 | 56 | 1012.6 |
| 20260509010538 | 60 | 135 | 2.6 | 6.1 | 0.00 | 0.00 | 0.00 | 54 | 1012.5 |
| 20260509010018 | 61 | 135 | 1.7 | 6.1 | 0.00 | 0.00 | 0.00 | 54 | 1012.4 |
| 20260509005517 | 61 | 135 | 2.6 | 8.7 | 0.00 | 0.00 | 0.00 | 52 | 1012.2 |
| 20260509005017 | 61 | 0.0 | 3.5 | 0.00 | 0.00 | 0.00 | 50 | 1012.1 | |
| 20260509004517 | 61 | 90 | 0.9 | 2.6 | 0.00 | 0.00 | 0.00 | 49 | 1012.1 |
| 20260509004018 | 61 | 90 | 0.9 | 2.6 | 0.00 | 0.00 | 0.00 | 50 | 1012.0 |
| 20260509003517 | 61 | 0.0 | 2.6 | 0.00 | 0.00 | 0.00 | 50 | 1011.9 | |
| 20260509003017 | 61 | 0.0 | 1.7 | 0.00 | 0.00 | 0.00 | 50 | 1011.8 | |
| 20260509002538 | 61 | 0.0 | 1.7 | 0.00 | 0.00 | 0.00 | 50 | 1011.8 | |
| 20260509002017 | 61 | 45 | 0.9 | 2.6 | 0.00 | 0.00 | 0.00 | 50 | 1011.7 |
| 20260509001518 | 61 | 45 | 0.9 | 2.6 | 0.00 | 0.00 | 0.00 | 49 | 1011.7 |
| 20260509001017 | 61 | 0.0 | 2.6 | 0.00 | 0.00 | 0.00 | 49 | 1011.8 | |
| 20260509000518 | 61 | 45 | 0.9 | 2.6 | 0.00 | 0.00 | 0.00 | 49 | 1011.9 |
| 20260509000037 | 61 | 0.0 | 1.7 | 0.00 | 0.00 | 0.00 | 49 | 1011.8 | |
| 20260508235517 | 61 | 0.0 | 1.7 | 0.00 | 0.00 | 0.00 | 49 | 1011.8 | |
| 20260508235016 | 61 | 0.0 | 1.7 | 0.00 | 0.00 | 0.00 | 49 | 1011.8 | |
| 20260508234517 | 62 | 45 | 0.9 | 1.7 | 0.00 | 0.00 | 0.00 | 49 | 1011.8 |
| 20260508234017 | 62 | 0.0 | 1.7 | 0.00 | 0.00 | 0.00 | 49 | 1011.8 | |
| 20260508233600 | 62 | 338 | 0.9 | 3.5 | 0.00 | 0.00 | 0.00 | 48 | 1011.7 |
| 20260508233017 | 62 | 45 | 1.7 | 4.3 | 0.00 | 0.00 | 0.00 | 48 | 1011.6 |
| 20260508232538 | 62 | 45 | 0.9 | 3.5 | 0.00 | 0.00 | 0.00 | 47 | 1011.5 |
| 20260508232017 | 62 | 45 | 0.9 | 3.5 | 0.00 | 0.00 | 0.00 | 47 | 1011.5 |
| 20260508231538 | 62 | 45 | 1.7 | 5.2 | 0.00 | 0.00 | 0.00 | 47 | 1011.5 |
| 20260508231037 | 62 | 45 | 0.9 | 4.3 | 0.00 | 0.00 | 0.00 | 47 | 1011.4 |
| 20260508230517 | 62 | 338 | 1.7 | 3.5 | 0.00 | 0.00 | 0.00 | 47 | 1011.4 |
| 20260508230017 | 62 | 23 | 0.9 | 3.5 | 0.00 | 0.00 | 0.00 | 46 | 1011.4 |
| 20260508225518 | 63 | 0 | 1.7 | 4.3 | 0.00 | 0.00 | 0.00 | 46 | 1011.4 |
| 20260508225017 | 63 | 23 | 1.7 | 7.0 | 0.00 | 0.00 | 0.00 | 46 | 1011.4 |
| 20260508224517 | 63 | 23 | 1.7 | 4.3 | 0.00 | 0.00 | 0.00 | 46 | 1011.4 |
| 20260508224017 | 63 | 45 | 1.7 | 5.2 | 0.00 | 0.00 | 0.00 | 46 | 1011.4 |
| 20260508223517 | 63 | 315 | 1.7 | 5.2 | 0.00 | 0.00 | 0.00 | 46 | 1011.3 |
| 20260508223017 | 63 | 0 | 0.9 | 4.3 | 0.00 | 0.00 | 0.00 | 45 | 1011.4 |
| 20260508222517 | 63 | 338 | 0.9 | 3.5 | 0.00 | 0.00 | 0.00 | 46 | 1011.4 |
| 20260508222017 | 63 | 338 | 2.6 | 7.0 | 0.00 | 0.00 | 0.00 | 45 | 1011.4 |
| 20260508221517 | 63 | 0 | 1.7 | 7.0 | 0.00 | 0.00 | 0.00 | 44 | 1011.4 |
| 20260508221017 | 64 | 338 | 1.7 | 5.2 | 0.00 | 0.00 | 0.00 | 43 | 1011.4 |
| 20260508220517 | 64 | 338 | 1.7 | 7.0 | 0.00 | 0.00 | 0.00 | 43 | 1011.3 |
| 20260508220018 | 64 | 23 | 1.7 | 7.8 | 0.00 | 0.00 | 0.00 | 43 | 1011.2 |
| 20260508215516 | 64 | 315 | 3.5 | 7.8 | 0.00 | 0.00 | 0.00 | 41 | 1011.2 |
| 20260508215017 | 65 | 248 | 3.5 | 9.6 | 0.00 | 0.00 | 0.00 | 41 | 1011.3 |
| 20260508214516 | 65 | 315 | 3.5 | 9.6 | 0.00 | 0.00 | 0.00 | 40 | 1011.2 |
| 20260508214017 | 66 | 315 | 3.5 | 8.7 | 0.00 | 0.00 | 0.00 | 41 | 1011.3 |
| 20260508213518 | 65 | 315 | 3.5 | 8.7 | 0.00 | 0.00 | 0.00 | 40 | 1011.3 |
| 20260508213017 | 65 | 315 | 2.6 | 7.0 | 0.00 | 0.00 | 0.00 | 40 | 1011.3 |
| 20260508212517 | 65 | 315 | 4.3 | 9.6 | 0.00 | 0.00 | 0.00 | 39 | 1011.4 |
| 20260508212017 | 65 | 270 | 4.3 | 11.3 | 0.00 | 0.00 | 0.00 | 40 | 1011.4 |
| 20260508211517 | 64 | 315 | 4.3 | 10.4 | 0.00 | 0.00 | 0.00 | 40 | 1011.3 |
| 20260508211057 | 63 | 270 | 7.8 | 13.0 | 0.00 | 0.00 | 0.00 | 40 | 1011.6 |
| 20260508210518 | 64 | 270 | 5.2 | 12.2 | 0.00 | 0.00 | 0.00 | 40 | 1011.6 |
| 20260508210017 | 64 | 270 | 6.1 | 12.2 | 0.00 | 0.00 | 0.00 | 39 | 1011.6 |
| 20260508205517 | 64 | 248 | 5.2 | 12.2 | 0.00 | 0.00 | 0.00 | 39 | 1011.6 |
| 20260508205017 | 64 | 270 | 6.1 | 11.3 | 0.00 | 0.00 | 0.00 | 39 | 1011.4 |
| 20260508204538 | 63 | 270 | 7.0 | 13.9 | 0.00 | 0.00 | 0.00 | 39 | 1011.5 |
| 20260508204056 | 64 | 270 | 8.7 | 16.5 | 0.00 | 0.00 | 0.00 | 38 | 1011.5 |
| 20260508203517 | 64 | 270 | 7.0 | 14.8 | 0.00 | 0.00 | 0.00 | 38 | 1011.6 |
| 20260508203017 | 64 | 270 | 5.2 | 11.3 | 0.00 | 0.00 | 0.00 | 38 | 1011.5 |
| 20260508202537 | 64 | 270 | 7.8 | 13.9 | 0.00 | 0.00 | 0.00 | 38 | 1011.5 |
| 20260508202017 | 64 | 270 | 7.8 | 15.6 | 0.00 | 0.00 | 0.00 | 37 | 1011.3 |
| 20260508201517 | 64 | 248 | 7.8 | 17.4 | 0.00 | 0.00 | 0.00 | 37 | 1011.2 |
| 20260508201018 | 65 | 248 | 7.0 | 13.0 | 0.00 | 0.00 | 0.00 | 37 | 1011.3 |
| 20260508200518 | 65 | 270 | 7.8 | 12.2 | 0.00 | 0.00 | 0.00 | 36 | 1011.3 |
| 20260508200057 | 65 | 270 | 7.0 | 13.9 | 0.00 | 0.00 | 0.00 | 36 | 1011.3 |
| 20260508195537 | 66 | 248 | 7.0 | 12.2 | 0.00 | 0.00 | 0.00 | 36 | 1011.2 |
| 20260508195036 | 66 | 270 | 6.1 | 11.3 | 0.00 | 0.00 | 0.00 | 36 | 1011.1 |
| 20260508194517 | 66 | 270 | 5.2 | 10.4 | 0.00 | 0.00 | 0.00 | 36 | 1011.1 |
| 20260508194016 | 66 | 270 | 7.0 | 13.0 | 0.00 | 0.00 | 0.00 | 36 | 1011.1 |
| 20260508193516 | 66 | 315 | 5.2 | 12.2 | 0.00 | 0.00 | 0.00 | 35 | 1011.1 |
| 20260508193037 | 66 | 293 | 7.0 | 13.9 | 0.00 | 0.00 | 0.00 | 35 | 1011.0 |
| 20260508192516 | 65 | 270 | 8.7 | 13.0 | 0.00 | 0.00 | 0.00 | 35 | 1011.3 |
| 20260508192016 | 65 | 270 | 7.0 | 14.8 | 0.00 | 0.00 | 0.00 | 36 | 1011.5 |
| 20260508191517 | 65 | 270 | 5.2 | 10.4 | 0.00 | 0.00 | 0.00 | 36 | 1011.5 |
| 20260508191036 | 65 | 248 | 6.1 | 17.4 | 0.00 | 0.00 | 0.00 | 36 | 1011.6 |
| 20260508190516 | 64 | 270 | 6.1 | 12.2 | 0.00 | 0.00 | 0.00 | 37 | 1011.5 |
| 20260508190016 | 64 | 270 | 6.1 | 13.0 | 0.00 | 0.00 | 0.00 | 37 | 1011.7 |
| 20260508185537 | 64 | 270 | 6.1 | 13.0 | 0.00 | 0.00 | 0.00 | 37 | 1011.7 |
| 20260508185017 | 64 | 248 | 7.0 | 13.9 | 0.00 | 0.00 | 0.00 | 36 | 1011.7 |
| 20260508184517 | 64 | 248 | 9.6 | 16.5 | 0.00 | 0.00 | 0.00 | 35 | 1011.8 |
| 20260508184016 | 65 | 248 | 7.8 | 13.9 | 0.00 | 0.00 | 0.00 | 35 | 1011.8 |
| 20260508183516 | 66 | 248 | 6.1 | 12.2 | 0.00 | 0.00 | 0.00 | 35 | 1011.8 |
| 20260508183036 | 66 | 270 | 6.1 | 12.2 | 0.00 | 0.00 | 0.00 | 35 | 1011.7 |
| 20260508182518 | 65 | 248 | 7.0 | 13.0 | 0.00 | 0.00 | 0.00 | 36 | 1011.7 |
| 20260508182016 | 65 | 270 | 6.1 | 13.0 | 0.00 | 0.00 | 0.00 | 36 | 1011.7 |
| 20260508181516 | 65 | 248 | 8.7 | 15.6 | 0.00 | 0.00 | 0.00 | 36 | 1011.8 |
| 20260508181017 | 65 | 270 | 8.7 | 13.9 | 0.00 | 0.00 | 0.00 | 35 | 1012.1 |
| 20260508180516 | 64 | 248 | 8.7 | 13.9 | 0.00 | 0.00 | 0.00 | 36 | 1011.9 |
| 20260508180016 | 64 | 270 | 7.8 | 13.9 | 0.00 | 0.00 | 0.00 | 37 | 1012.0 |
| 20260508175516 | 64 | 270 | 8.7 | 17.4 | 0.00 | 0.00 | 0.00 | 37 | 1012.1 |
| 20260508175017 | 64 | 270 | 8.7 | 15.6 | 0.00 | 0.00 | 0.00 | 37 | 1012.1 |
| 20260508174518 | 64 | 270 | 7.0 | 13.0 | 0.00 | 0.00 | 0.00 | 37 | 1012.2 |
| 20260508174016 | 64 | 270 | 7.0 | 12.2 | 0.00 | 0.00 | 0.00 | 37 | 1012.2 |
| 20260508173516 | 64 | 270 | 8.7 | 15.6 | 0.00 | 0.00 | 0.00 | 36 | 1012.2 |
| 20260508173038 | 64 | 270 | 7.8 | 13.0 | 0.00 | 0.00 | 0.00 | 37 | 1012.1 |
| 20260508172516 | 63 | 270 | 8.7 | 18.2 | 0.00 | 0.00 | 0.00 | 38 | 1012.1 |
| 20260508172016 | 63 | 270 | 9.6 | 17.4 | 0.00 | 0.00 | 0.00 | 38 | 1012.1 |
| 20260508171517 | 64 | 270 | 9.6 | 15.6 | 0.00 | 0.00 | 0.00 | 37 | 1012.4 |
| 20260508171016 | 64 | 248 | 7.0 | 13.9 | 0.00 | 0.00 | 0.00 | 37 | 1012.2 |
| 20260508170516 | 63 | 270 | 7.8 | 13.9 | 0.00 | 0.00 | 0.00 | 38 | 1012.2 |
| 20260508170041 | 63 | 248 | 7.0 | 13.0 | 0.00 | 0.00 | 0.00 | 38 | 1012.2 |
| 20260508165516 | 63 | 270 | 7.8 | 13.9 | 0.00 | 0.00 | 0.00 | 37 | 1012.4 |
| 20260508165016 | 63 | 270 | 7.8 | 12.2 | 0.00 | 0.00 | 0.00 | 37 | 1012.5 |
| 20260508164517 | 63 | 248 | 7.0 | 11.3 | 0.00 | 0.00 | 0.00 | 37 | 1012.5 |
| 20260508164036 | 63 | 270 | 8.7 | 15.6 | 0.00 | 0.00 | 0.00 | 36 | 1012.7 |
| 20260508163516 | 62 | 270 | 9.6 | 17.4 | 0.00 | 0.00 | 0.00 | 36 | 1012.6 |
| 20260508163038 | 63 | 270 | 8.7 | 16.5 | 0.00 | 0.00 | 0.00 | 36 | 1012.6 |
| 20260508162516 | 63 | 270 | 9.6 | 14.8 | 0.00 | 0.00 | 0.00 | 36 | 1012.5 |
| 20260508162017 | 63 | 248 | 8.7 | 21.7 | 0.00 | 0.00 | 0.00 | 36 | 1012.7 |
| 20260508161516 | 63 | 248 | 9.6 | 20.9 | 0.00 | 0.00 | 0.00 | 36 | 1012.7 |
| 20260508161016 | 63 | 248 | 7.8 | 13.9 | 0.00 | 0.00 | 0.00 | 37 | 1012.8 |
| 20260508160517 | 61 | 270 | 7.8 | 13.0 | 0.00 | 0.00 | 0.00 | 37 | 1012.7 |
| 20260508160016 | 61 | 270 | 7.0 | 13.0 | 0.00 | 0.00 | 0.00 | 37 | 1012.7 |
| 20260508155617 | 62 | 270 | 8.7 | 15.6 | 0.00 | 0.00 | 0.00 | 36 | 1012.9 |
| 20260508155016 | 62 | 270 | 7.8 | 13.9 | 0.00 | 0.00 | 0.00 | 38 | 1012.9 |
| 20260508154557 | 63 | 270 | 7.0 | 13.0 | 0.00 | 0.00 | 0.00 | 37 | 1012.8 |
| 20260508154018 | 63 | 248 | 7.0 | 14.8 | 0.00 | 0.00 | 0.00 | 37 | 1012.8 |
| 20260508153516 | 62 | 270 | 7.8 | 17.4 | 0.00 | 0.00 | 0.00 | 37 | 1012.9 |
| 20260508153016 | 62 | 248 | 6.1 | 13.9 | 0.00 | 0.00 | 0.00 | 38 | 1012.9 |
| 20260508152516 | 62 | 225 | 5.2 | 10.4 | 0.00 | 0.00 | 0.00 | 38 | 1012.8 |
| 20260508152016 | 62 | 225 | 2.6 | 8.7 | 0.00 | 0.00 | 0.00 | 37 | 1012.8 |
| 20260508151538 | 62 | 338 | 4.3 | 8.7 | 0.00 | 0.00 | 0.00 | 36 | 1012.8 |
| 20260508151016 | 62 | 315 | 3.5 | 9.6 | 0.00 | 0.00 | 0.00 | 36 | 1012.8 |
| 20260508150516 | 62 | 270 | 3.5 | 10.4 | 0.00 | 0.00 | 0.00 | 37 | 1012.8 |
| 20260508150017 | 61 | 270 | 4.3 | 12.2 | 0.00 | 0.00 | 0.00 | 37 | 1012.8 |
| 20260508145517 | 61 | 293 | 2.6 | 7.0 | 0.00 | 0.00 | 0.00 | 38 | 1012.8 |
| 20260508145016 | 61 | 270 | 4.3 | 8.7 | 0.00 | 0.00 | 0.00 | 38 | 1012.8 |
| 20260508144516 | 61 | 270 | 3.5 | 10.4 | 0.00 | 0.00 | 0.00 | 40 | 1012.9 |
| 20260508144056 | 60 | 270 | 4.3 | 9.6 | 0.00 | 0.00 | 0.00 | 41 | 1012.9 |
| 20260508143517 | 60 | 270 | 5.2 | 9.6 | 0.00 | 0.00 | 0.00 | 40 | 1013.1 |
| 20260508143017 | 60 | 315 | 3.5 | 8.7 | 0.00 | 0.00 | 0.00 | 43 | 1013.1 |
| 20260508142518 | 60 | 315 | 4.3 | 9.6 | 0.00 | 0.00 | 0.00 | 42 | 1013.0 |
| 20260508142016 | 60 | 248 | 3.5 | 8.7 | 0.00 | 0.00 | 0.00 | 45 | 1013.1 |
| 20260508141536 | 59 | 315 | 3.5 | 7.8 | 0.00 | 0.00 | 0.00 | 44 | 1013.1 |
| 20260508141016 | 59 | 270 | 3.5 | 7.8 | 0.00 | 0.00 | 0.00 | 48 | 1013.2 |
| 20260508140517 | 59 | 338 | 3.5 | 7.8 | 0.00 | 0.00 | 0.00 | 48 | 1013.1 |
| 20260508140016 | 59 | 248 | 3.5 | 10.4 | 0.00 | 0.00 | 0.00 | 48 | 1013.2 |
| 20260508135516 | 58 | 270 | 5.2 | 11.3 | 0.00 | 0.00 | 0.00 | 48 | 1013.3 |
| 20260508135016 | 59 | 270 | 5.2 | 11.3 | 0.00 | 0.00 | 0.00 | 48 | 1013.3 |
| 20260508134536 | 59 | 270 | 4.3 | 7.8 | 0.00 | 0.00 | 0.00 | 50 | 1013.2 |
| 20260508134016 | 58 | 248 | 4.3 | 8.7 | 0.00 | 0.00 | 0.00 | 51 | 1013.2 |
| 20260508133516 | 58 | 315 | 4.3 | 9.6 | 0.00 | 0.00 | 0.00 | 51 | 1013.2 |
| 20260508133016 | 57 | 315 | 3.5 | 8.7 | 0.00 | 0.00 | 0.00 | 52 | 1013.3 |
| 20260508132516 | 57 | 293 | 4.3 | 7.8 | 0.00 | 0.00 | 0.00 | 52 | 1013.3 |
| 20260508132016 | 56 | 315 | 3.5 | 9.6 | 0.00 | 0.00 | 0.00 | 54 | 1013.3 |
| 20260508131516 | 56 | 270 | 4.3 | 8.7 | 0.00 | 0.00 | 0.00 | 55 | 1013.2 |
| 20260508131016 | 56 | 315 | 5.2 | 9.6 | 0.00 | 0.00 | 0.00 | 55 | 1013.2 |
| 20260508130516 | 56 | 315 | 4.3 | 7.8 | 0.00 | 0.00 | 0.00 | 56 | 1013.2 |
| 20260508130017 | 56 | 270 | 5.2 | 11.3 | 0.00 | 0.00 | 0.00 | 57 | 1013.1 |
| 20260508125518 | 56 | 315 | 4.3 | 9.6 | 0.00 | 0.00 | 0.00 | 57 | 1013.1 |
| 20260508125016 | 55 | 315 | 3.5 | 9.6 | 0.00 | 0.00 | 0.00 | 57 | 1013.2 |
| 20260508124516 | 55 | 248 | 4.3 | 13.0 | 0.00 | 0.00 | 0.00 | 58 | 1013.1 |
| 20260508124016 | 55 | 315 | 2.6 | 7.8 | 0.00 | 0.00 | 0.00 | 59 | 1013.1 |
| 20260508123516 | 55 | 315 | 4.3 | 9.6 | 0.00 | 0.00 | 0.00 | 59 | 1013.1 |